Regional Weather Roundup
Issued by NWS Newport/Morehead, NC

Current Version | Previous Version | Graphics & Text | Print | Product List | Glossary On
Versions: 1 2 3 4 5 6 7 8 9 10 11 12 13 14 15 16 17 18 19 20 21 22 23 24 25 26 27 28 29 30 31 32 33 34 35 36 37 38 39 40 41 42 43 44 45 46 47 48 49 50
352 ASUS42 KMHX 271013 RWRMHX WEATHER ROUNDUP FOR EASTERN NORTH CAROLINA NATIONAL WEATHER SERVICE NEWPORT/MOREHEAD CITY NC 600 AM EDT WED JUL 27 2016 NOTE: "FAIR" INDICATES FEW OR NO CLOUDS BELOW 12,000 FEET WITH NO SIGNIFICANT WEATHER AND/OR OBSTRUCTIONS TO VISIBILITY NCZ015>017-031-032-045>047-102-103-271100- NORTH COAST CITY SKY/WX TMP DP RH WIND PRES REMARKS EDENTON CLOUDY N/A N/A N/A CALM 29.96S ELIZABETH CITY CLOUDY 76 74 93 CALM 29.94S KITTY HAWK CLOUDY 82 78 87 NW7 29.93R MANTEO N/A 80 79 96 NW6 29.95R $$ NCZ045>047-081-094-103-104-271100- CENTRAL COAST CITY SKY/WX TMP DP RH WIND PRES REMARKS FRISCO CLOUDY 81 77 88 W9 29.94F $$ NCZ095-097-098-100-101-271100- SOUTHERN COAST CITY SKY/WX TMP DP RH WIND PRES REMARKS BEAUFORT PTCLDY 82 77 84 SW14 29.97R CEDAR ISLAND NOT AVBL JACKSONVILLE CLEAR 78 73 84 SW8 29.97R PINEY ISLAND NOT AVBL WILMINGTON PTCLDY 79 74 84 SW9 29.99R $$ NCZ011>013-027>030-043-044-078>080-089-090>093-098-271100- COASTAL PLAIN CITY SKY/WX TMP DP RH WIND PRES REMARKS AHOSKIE PTCLDY 73 72 98 CALM 29.97R FOG CLINTON RAIN 79 77 93 CALM 29.97S ELIZABETHTOWN CLEAR 78 75 89 SW6 29.98S GOLDSBORO MOCLDY 79 79 100 SW5 29.95S GREENVILLE MOCLDY 81 77 89 SW5 29.97R HAVELOCK CLEAR 77 73 87 W6 29.98R KENANSVILLE NOT AVBL KINSTON MOCLDY 77 75 92 CALM 29.97S NEW BERN PTCLDY 77 74 90 SW5 29.98R RICHLANDS PTCLDY 77 75 93 SW5 29.98R ROCKY MOUNT MOCLDY 77 77 100 CALM 29.95S WASHINGTON PTCLDY 78 75 89 SW7 29.95R WHITEVILLE CLEAR 79 74 84 SW6 29.98S $$ AMZ130-135-150-152-154-156-158-170-250-252-270-ANZ085-086-088-633-658-670-271100- MARINE OBSERVATIONS STATION/POSITION TIME TEMP WIND PRES WAVE SWELL AIR SEA DIR/SP/G HT/PER HT/PER (UTC) (F) (DEG/KT/KT) (MB) (FT/S) (FT/S) CHESAPEAKE LIGHT NOT AVBL 64 E VA BEACH 0950 81 79 270/ 6/ 8 1013.2 3/ 6 3/ 6 DUCK 0900 82 63 270/ 10/ 12 1012.9 2 E DUCK 0911 66 N/A 1/ 5 OREGON INLET 0900 82 85 240/ 13/ 16 1013.0 13E OREGON INLT 1000 81 N/A 3/ 6 2/ 6 HATTERAS CG 0900 81 83 230/ 6/ 9 1013.9 DIAMOND BUOY 0950 84 84 240/ 17/ 19 1013.8 4/ 6 CAPE LOOKOUT 1000 83 250/ 11/ 14 1014.7 BEAUFORT LAB 0900 82 83 240/ 4/ 11 1013.9 30 SE NEW RVR IN 0908 84 84 240/ 17/ 21 1015.0 30 SE NEW RVR IN 0925 84 N/A 4/ 5 27 SE WRIGHTSVLE 0908 84 84 240/ 17/ 21 1015.5 5 SE WRIGHTSVLE 0908 81 80 240/ 8/ 10 1016.2 225 S CAPE HAT 0950 83 84 250/ 12/ 14 1017.6 3/ 5 2/ 7 41 SE CHARLESTON 0950 85 86 240/ 16/ 17 1016.1 4/ 5 2/ 8 $$

USA.gov is the U.S. government's official web portal to all federal, state and local government web resources and services.